Location: Czu?�w
(50.1404°N, 18.9919°E)
Time: 02:27:55
(UTC+00:00)

Cosmos 1709 Rocket - Pass Details

Date: 27 October 2020
Orbit: 949 x 1001 km, 82.9° (Epoch: 24 November)

Event Time Altitude Azimuth Distance (km) Brightness Sun altitude
Rises 17:45:24 0° 350° (N) 3,726 7.3 -22.4°
Reaches altitude 10° 17:47:56 10° 352° (N) 2,777 6.5 -22.8°
Maximum altitude 17:54:21 81° 80° (E) 1,019 3.9 -23.8°
Enters shadow 17:59:42 15° 167° (SSE) 2,388 5.8 -24.7°
